International Skating Union - Official Site

ISU World Cup Obihiro
November 14-16, 2014

Draw | Lap Times | Index | World Cup

Referee: Jan  BOLT  (NED)
Starter: Tokuro  NAGATA  (JPN)
StartTime: EndTime: Air Temp: Ice Temp: Humidity:
17:28 17:56 17.6 ℃ -6.9 ℃ 32%
Result Team Pursuit Ladies
Rankings as of Nov 15 2014 6:06PM
Rank: No.: Team: Nation: Time: Behind: Points:
Total 9
1 1 Netherlands (74) Ireen Wüst (62) Marrit Leenstra (61) Marije Joling (72) Jorien Voorhuis NED NED 3:02.540.5 - 18.61 - (18.6)
1.0 - 32.73 - (14.1)
1.5 - 46.84 - (14.1)
2.0 - 1:01.45 - (14.6)
2.5 - 1:16.00 - (14.5)
3.0 - 1:30.62 - (14.6)
3.5 - 1:45.54 - (14.9)
4.0 - 2:00.72 - (15.1)
4.5 - 2:16.08 - (15.3)
5.0 - 2:31.75 - (15.6)
5.5 - 2:47.22 - (15.4)
6.0 - 3:02.54 - (15.3)
100
2 3 Japan (42) Nana Takagi (35) Ayaka Kikuchi (40) Maki Tabata (38) Misaki Oshigiri JPN JPN 3:04.780.5 - 19.03 - (19.0)
1.0 - 33.52 - (14.4)
1.5 - 47.84 - (14.3)
2.0 - 1:02.29 - (14.4)
2.5 - 1:16.93 - (14.6)
3.0 - 1:31.73 - (14.7)
3.5 - 1:46.76 - (15.0)
4.0 - 2:02.02 - (15.2)
4.5 - 2:17.22 - (15.2)
5.0 - 2:32.63 - (15.4)
5.5 - 2:48.40 - (15.7)
6.0 - 3:04.78 - (16.4)
2.24 80
3 8 Germany (29) Claudia Pechstein (28) Bente Kraus (27) Gabriele Hirschbichler GER GER 3:06.510.5 - 19.85 - (19.8)
1.0 - 35.00 - (15.1)
1.5 - 49.99 - (14.9)
2.0 - 1:04.86 - (14.8)
2.5 - 1:19.84 - (14.9)
3.0 - 1:35.15 - (15.3)
3.5 - 1:50.26 - (15.1)
4.0 - 2:05.51 - (15.2)
4.5 - 2:20.91 - (15.3)
5.0 - 2:36.34 - (15.4)
5.5 - 2:51.46 - (15.1)
6.0 - 3:06.51 - (15.0)
3.97 70
4 4 Canada (3) Ivanie Blondin (4) Kali Christ (11) Josie Spence (5) Kate Hanly CAN CAN 3:06.660.5 - 19.35 - (19.3)
1.0 - 33.82 - (14.4)
1.5 - 48.03 - (14.2)
2.0 - 1:02.25 - (14.2)
2.5 - 1:16.88 - (14.6)
3.0 - 1:31.94 - (15.0)
3.5 - 1:47.30 - (15.3)
4.0 - 2:03.04 - (15.7)
4.5 - 2:18.62 - (15.5)
5.0 - 2:34.40 - (15.7)
5.5 - 2:50.61 - (16.2)
6.0 - 3:06.66 - (16.0)
4.12 60
5 2 Poland (80) Luiza Zlotkowska (78) Katarzyna Wozniak (77) Aleksandra Goss (76) Angelika Fudalej POL POL 3:07.370.5 - 19.66 - (19.6)
1.0 - 34.68 - (15.0)
1.5 - 49.45 - (14.7)
2.0 - 1:04.38 - (14.9)
2.5 - 1:19.47 - (15.0)
3.0 - 1:34.56 - (15.0)
3.5 - 1:49.98 - (15.4)
4.0 - 2:05.46 - (15.4)
4.5 - 2:21.11 - (15.6)
5.0 - 2:36.76 - (15.6)
5.5 - 2:52.04 - (15.2)
6.0 - 3:07.37 - (15.3)
4.83 50
6 6 Russia (85) Olga Graf (89) Yuliya Skokova (88) Margarita Ryzhova (86) Aleksandra Kachurkina RUS RUS 3:08.560.5 - 19.57 - (19.5)
1.0 - 34.50 - (14.9)
1.5 - 49.41 - (14.9)
2.0 - 1:04.45 - (15.0)
2.5 - 1:19.76 - (15.3)
3.0 - 1:35.34 - (15.5)
3.5 - 1:50.76 - (15.4)
4.0 - 2:06.15 - (15.3)
4.5 - 2:21.53 - (15.3)
5.0 - 2:37.31 - (15.7)
5.5 - 2:53.05 - (15.7)
6.0 - 3:08.56 - (15.5)
6.02 45
7 7 China (20) Xin Zhao (14) Jing Liu (15) Yichi Liu CHN CHN 3:10.660.5 - 19.15 - (19.1)
1.0 - 33.95 - (14.8)
1.5 - 48.70 - (14.7)
2.0 - 1:03.88 - (15.1)
2.5 - 1:19.17 - (15.2)
3.0 - 1:34.73 - (15.5)
3.5 - 1:50.43 - (15.7)
4.0 - 2:06.29 - (15.8)
4.5 - 2:22.69 - (16.3)
5.0 - 2:38.62 - (15.9)
5.5 - 2:54.66 - (16.0)
6.0 - 3:10.66 - (16.0)
8.12 40
8 9 Czech Republic (23) Martina Sábliková (24) Nikola Zdráhalova (22) Natalie Kerschbaummayr CZE CZE 3:13.780.5 - 20.31 - (20.3)
1.0 - 35.68 - (15.3)
1.5 - 51.03 - (15.3)
2.0 - 1:06.60 - (15.5)
2.5 - 1:22.32 - (15.7)
3.0 - 1:37.96 - (15.6)
3.5 - 1:53.66 - (15.7)
4.0 - 2:09.38 - (15.7)
4.5 - 2:25.25 - (15.8)
5.0 - 2:41.29 - (16.0)
5.5 - 2:57.59 - (16.3)
6.0 - 3:13.78 - (16.2)
11.24 35
9 5 Korea (49) Bo-Reum Kim (48) Ye Jin Jun (52) Seon-Yeong Noh (53) Cho-Weon Park KOR KOR 3:15.390.5 - 19.82 - (19.8)
1.0 - 34.53 - (14.7)
1.5 - 49.30 - (14.7)
2.0 - 1:04.17 - (14.8)
2.5 - 1:19.25 - (15.0)
3.0 - 1:34.20 - (14.9)
3.5 - 1:49.81 - (15.6)
4.0 - 2:06.18 - (16.3)
4.5 - 2:23.15 - (16.9)
5.0 - 2:40.24 - (17.0)
5.5 - 2:58.22 - (17.9)
6.0 - 3:15.39 - (17.1)
12.85 30